owner,sensor,date,latitude,longitude,air_temperature,qcFlag 
WAVCIS,ioos:station:WAVCIS:CSI16:1,2009-12-01T00:00:00Z,29.4012,-89.0355,32.06,11111222 
WAVCIS,ioos:station:WAVCIS:CSI16:1,2009-12-01T01:00:00Z,29.4012,-89.0355,31.63,11111222 
WAVCIS,ioos:station:WAVCIS:CSI16:1,2009-12-01T02:00:00Z,29.4012,-89.0355,32.54,11111222 
WAVCIS,ioos:station:WAVCIS:CSI16:1,2009-12-01T03:00:00Z,29.4012,-89.0355,34.64,11111222 
WAVCIS,ioos:station:WAVCIS:CSI16:1,2009-12-01T04:00:00Z,29.4012,-89.0355,39.22,11111222 
WAVCIS,ioos:station:WAVCIS:CSI16:1,2009-12-01T05:00:00Z,29.4012,-89.0355,37.78,11111222 
WAVCIS,ioos:station:WAVCIS:CSI16:1,2009-12-01T06:00:00Z,29.4012,-89.0355,40.11,11111222 
WAVCIS,ioos:station:WAVCIS:CSI16:1,2009-12-01T07:00:00Z,29.4012,-89.0355,38.8,11111222 
WAVCIS,ioos:station:WAVCIS:CSI16:1,2009-12-01T08:00:00Z,29.4012,-89.0355,38.43,11111222 
WAVCIS,ioos:station:WAVCIS:CSI16:1,2009-12-01T09:00:00Z,29.4012,-89.0355,33.77,11111222 
WAVCIS,ioos:station:WAVCIS:CSI16:1,2009-12-01T10:00:00Z,29.4012,-89.0355,33.39,11111222 
WAVCIS,ioos:station:WAVCIS:CSI16:1,2009-12-01T11:00:00Z,29.4012,-89.0355,34.69,11111222 
WAVCIS,ioos:station:WAVCIS:CSI16:1,2009-12-01T12:00:00Z,29.4012,-89.0355,32.65,11111222 
WAVCIS,ioos:station:WAVCIS:CSI16:1,2009-12-01T13:00:00Z,29.4012,-89.0355,33.93,11111222 
WAVCIS,ioos:station:WAVCIS:CSI16:1,2009-12-01T14:00:00Z,29.4012,-89.0355,33.85,11111222 
WAVCIS,ioos:station:WAVCIS:CSI16:1,2009-12-01T15:00:00Z,29.4012,-89.0355,34.66,11111222 
WAVCIS,ioos:station:WAVCIS:CSI16:1,2009-12-01T16:00:00Z,29.4012,-89.0355,33.53,11111222 
WAVCIS,ioos:station:WAVCIS:CSI16:1,2009-12-01T17:00:00Z,29.4012,-89.0355,36.2,11111222 
WAVCIS,ioos:station:WAVCIS:CSI16:1,2009-12-01T18:00:00Z,29.4012,-89.0355,36.09,11111222 
WAVCIS,ioos:station:WAVCIS:CSI16:1,2009-12-01T19:00:00Z,29.4012,-89.0355,34.43,11111222 
WAVCIS,ioos:station:WAVCIS:CSI16:1,2009-12-01T20:00:00Z,29.4012,-89.0355,34.14,11111222 
WAVCIS,ioos:station:WAVCIS:CSI16:1,2009-12-01T21:00:00Z,29.4012,-89.0355,32.99,11111222 
WAVCIS,ioos:station:WAVCIS:CSI16:1,2009-12-01T22:00:00Z,29.4012,-89.0355,32.0,11111222 
WAVCIS,ioos:station:WAVCIS:CSI16:1,2009-12-01T23:00:00Z,29.4012,-89.0355,29.92,11111222 
WAVCIS,ioos:station:WAVCIS:CSI16:1,2009-12-02T00:00:00Z,29.4012,-89.0355,29.79,11111222 
WAVCIS,ioos:station:WAVCIS:CSI16:1,2009-12-02T01:00:00Z,29.4012,-89.0355,30.58,11111222 
WAVCIS,ioos:station:WAVCIS:CSI16:1,2009-12-02T02:00:00Z,29.4012,-89.0355,30.39,11111222 
WAVCIS,ioos:station:WAVCIS:CSI16:1,2009-12-02T03:00:00Z,29.4012,-89.0355,29.97,11111222 
WAVCIS,ioos:station:WAVCIS:CSI16:1,2009-12-02T04:00:00Z,29.4012,-89.0355,28.64,11111222 
WAVCIS,ioos:station:WAVCIS:CSI16:1,2009-12-02T05:00:00Z,29.4012,-89.0355,34.19,11111222 
WAVCIS,ioos:station:WAVCIS:CSI16:1,2009-12-02T06:00:00Z,29.4012,-89.0355,32.47,11111222 
WAVCIS,ioos:station:WAVCIS:CSI16:1,2009-12-02T07:00:00Z,29.4012,-89.0355,32.74,11111222 
WAVCIS,ioos:station:WAVCIS:CSI16:1,2009-12-02T08:00:00Z,29.4012,-89.0355,33.17,11111222 
WAVCIS,ioos:station:WAVCIS:CSI16:1,2009-12-02T09:00:00Z,29.4012,-89.0355,31.65,11111222 
WAVCIS,ioos:station:WAVCIS:CSI16:1,2009-12-02T10:00:00Z,29.4012,-89.0355,31.85,11111222 
WAVCIS,ioos:station:WAVCIS:CSI16:1,2009-12-02T11:00:00Z,29.4012,-89.0355,32.24,11111222 
WAVCIS,ioos:station:WAVCIS:CSI16:1,2009-12-02T12:00:00Z,29.4012,-89.0355,31.5,11111222 
WAVCIS,ioos:station:WAVCIS:CSI16:1,2009-12-02T13:00:00Z,29.4012,-89.0355,31.71,11111222 
WAVCIS,ioos:station:WAVCIS:CSI16:1,2009-12-02T14:00:00Z,29.4012,-89.0355,30.92,11111222 
WAVCIS,ioos:station:WAVCIS:CSI16:1,2009-12-02T15:00:00Z,29.4012,-89.0355,32.07,11111222 
WAVCIS,ioos:station:WAVCIS:CSI16:1,2009-12-02T16:00:00Z,29.4012,-89.0355,35.01,11111222 
WAVCIS,ioos:station:WAVCIS:CSI16:1,2009-12-02T17:00:00Z,29.4012,-89.0355,37.39,11111222 
WAVCIS,ioos:station:WAVCIS:CSI16:1,2009-12-02T18:00:00Z,29.4012,-89.0355,33.0,11111222 
WAVCIS,ioos:station:WAVCIS:CSI16:1,2009-12-02T19:00:00Z,29.4012,-89.0355,35.22,11111222 
WAVCIS,ioos:station:WAVCIS:CSI16:1,2009-12-02T20:00:00Z,29.4012,-89.0355,33.0,11111222 
WAVCIS,ioos:station:WAVCIS:CSI16:1,2009-12-02T21:00:00Z,29.4012,-89.0355,32.1,11111222 
WAVCIS,ioos:station:WAVCIS:CSI16:1,2009-12-02T22:00:00Z,29.4012,-89.0355,29.9,11111222 
WAVCIS,ioos:station:WAVCIS:CSI16:1,2009-12-02T23:00:00Z,29.4012,-89.0355,27.87,11111222 
WAVCIS,ioos:station:WAVCIS:CSI16:1,2009-12-03T00:00:00Z,29.4012,-89.0355,27.51,11111222 
WAVCIS,ioos:station:WAVCIS:CSI16:1,2009-12-03T01:00:00Z,29.4012,-89.0355,27.66,11111222 
WAVCIS,ioos:station:WAVCIS:CSI16:1,2009-12-03T02:00:00Z,29.4012,-89.0355,27.93,11111222 
WAVCIS,ioos:station:WAVCIS:CSI16:1,2009-12-03T03:00:00Z,29.4012,-89.0355,28.32,11111222 
WAVCIS,ioos:station:WAVCIS:CSI16:1,2009-12-03T04:00:00Z,29.4012,-89.0355,28.51,11111222 
WAVCIS,ioos:station:WAVCIS:CSI16:1,2009-12-03T05:00:00Z,29.4012,-89.0355,28.49,11111222 
WAVCIS,ioos:station:WAVCIS:CSI16:1,2009-12-03T06:00:00Z,29.4012,-89.0355,28.04,11111222 
WAVCIS,ioos:station:WAVCIS:CSI16:1,2009-12-03T07:00:00Z,29.4012,-89.0355,27.95,11111222 
WAVCIS,ioos:station:WAVCIS:CSI16:1,2009-12-03T08:00:00Z,29.4012,-89.0355,27.88,11111222 
WAVCIS,ioos:station:WAVCIS:CSI16:1,2009-12-03T09:00:00Z,29.4012,-89.0355,29.24,11111222 
WAVCIS,ioos:station:WAVCIS:CSI16:1,2009-12-03T10:00:00Z,29.4012,-89.0355,28.88,11111222 
WAVCIS,ioos:station:WAVCIS:CSI16:1,2009-12-03T11:00:00Z,29.4012,-89.0355,28.97,11111222 
WAVCIS,ioos:station:WAVCIS:CSI16:1,2009-12-03T12:00:00Z,29.4012,-89.0355,29.51,11111222 
WAVCIS,ioos:station:WAVCIS:CSI16:1,2009-12-03T13:00:00Z,29.4012,-89.0355,29.75,11111222 
WAVCIS,ioos:station:WAVCIS:CSI16:1,2009-12-03T14:00:00Z,29.4012,-89.0355,30.26,11111222 
WAVCIS,ioos:station:WAVCIS:CSI16:1,2009-12-03T15:00:00Z,29.4012,-89.0355,31.67,11111222 
WAVCIS,ioos:station:WAVCIS:CSI16:1,2009-12-03T16:00:00Z,29.4012,-89.0355,31.9,11111222 
WAVCIS,ioos:station:WAVCIS:CSI16:1,2009-12-03T17:00:00Z,29.4012,-89.0355,30.63,11111222 
WAVCIS,ioos:station:WAVCIS:CSI16:1,2009-12-03T18:00:00Z,29.4012,-89.0355,31.79,11111222 
WAVCIS,ioos:station:WAVCIS:CSI16:1,2009-12-03T19:00:00Z,29.4012,-89.0355,29.81,11111222 
WAVCIS,ioos:station:WAVCIS:CSI16:1,2009-12-03T20:00:00Z,29.4012,-89.0355,31.22,11111222 
WAVCIS,ioos:station:WAVCIS:CSI16:1,2009-12-03T21:00:00Z,29.4012,-89.0355,33.58,11111222 
WAVCIS,ioos:station:WAVCIS:CSI16:1,2009-12-03T22:00:00Z,29.4012,-89.0355,33.11,11111222 
WAVCIS,ioos:station:WAVCIS:CSI16:1,2009-12-03T23:00:00Z,29.4012,-89.0355,31.64,11111222 
WAVCIS,ioos:station:WAVCIS:CSI16:1,2009-12-04T00:00:00Z,29.4012,-89.0355,35.4,11111222 
WAVCIS,ioos:station:WAVCIS:CSI16:1,2009-12-04T01:00:00Z,29.4012,-89.0355,35.48,11111222 
WAVCIS,ioos:station:WAVCIS:CSI16:1,2009-12-04T02:00:00Z,29.4012,-89.0355,33.51,11111222 
WAVCIS,ioos:station:WAVCIS:CSI16:1,2009-12-04T03:00:00Z,29.4012,-89.0355,37.93,11111222 
WAVCIS,ioos:station:WAVCIS:CSI16:1,2009-12-04T04:00:00Z,29.4012,-89.0355,36.71,11111222 
WAVCIS,ioos:station:WAVCIS:CSI16:1,2009-12-04T05:00:00Z,29.4012,-89.0355,36.35,11111222 
WAVCIS,ioos:station:WAVCIS:CSI16:1,2009-12-04T06:00:00Z,29.4012,-89.0355,36.05,11111222 
WAVCIS,ioos:station:WAVCIS:CSI16:1,2009-12-04T07:00:00Z,29.4012,-89.0355,36.26,11111222 
WAVCIS,ioos:station:WAVCIS:CSI16:1,2009-12-04T08:00:00Z,29.4012,-89.0355,34.51,11111222 
WAVCIS,ioos:station:WAVCIS:CSI16:1,2009-12-04T09:00:00Z,29.4012,-89.0355,35.39,11111222 
WAVCIS,ioos:station:WAVCIS:CSI16:1,2009-12-04T10:00:00Z,29.4012,-89.0355,36.32,11111222 
WAVCIS,ioos:station:WAVCIS:CSI16:1,2009-12-04T11:00:00Z,29.4012,-89.0355,37.11,11111222 
WAVCIS,ioos:station:WAVCIS:CSI16:1,2009-12-04T12:00:00Z,29.4012,-89.0355,37.81,11111222 
WAVCIS,ioos:station:WAVCIS:CSI16:1,2009-12-04T13:00:00Z,29.4012,-89.0355,36.77,11111222 
WAVCIS,ioos:station:WAVCIS:CSI16:1,2009-12-04T14:00:00Z,29.4012,-89.0355,36.49,11111222 
WAVCIS,ioos:station:WAVCIS:CSI16:1,2009-12-04T15:00:00Z,29.4012,-89.0355,36.91,11111222 
WAVCIS,ioos:station:WAVCIS:CSI16:1,2009-12-04T16:00:00Z,29.4012,-89.0355,33.86,11111222 
WAVCIS,ioos:station:WAVCIS:CSI16:1,2009-12-04T17:00:00Z,29.4012,-89.0355,29.75,11111222 
WAVCIS,ioos:station:WAVCIS:CSI16:1,2009-12-04T18:00:00Z,29.4012,-89.0355,35.88,11111222 
WAVCIS,ioos:station:WAVCIS:CSI16:1,2009-12-04T19:00:00Z,29.4012,-89.0355,30.59,11111222 
WAVCIS,ioos:station:WAVCIS:CSI16:1,2009-12-04T20:00:00Z,29.4012,-89.0355,37.77,11111222 
WAVCIS,ioos:station:WAVCIS:CSI16:1,2009-12-04T21:00:00Z,29.4012,-89.0355,33.16,11111222 
WAVCIS,ioos:station:WAVCIS:CSI16:1,2009-12-04T22:00:00Z,29.4012,-89.0355,28.74,11111222 
WAVCIS,ioos:station:WAVCIS:CSI16:1,2009-12-04T23:00:00Z,29.4012,-89.0355,34.29,11111222 
WAVCIS,ioos:station:WAVCIS:CSI16:1,2009-12-05T00:00:00Z,29.4012,-89.0355,30.07,11111222 
WAVCIS,ioos:station:WAVCIS:CSI16:1,2009-12-05T01:00:00Z,29.4012,-89.0355,28.65,11111222 
WAVCIS,ioos:station:WAVCIS:CSI16:1,2009-12-05T02:00:00Z,29.4012,-89.0355,27.89,11111222 
WAVCIS,ioos:station:WAVCIS:CSI16:1,2009-12-05T03:00:00Z,29.4012,-89.0355,24.53,11111222 
WAVCIS,ioos:station:WAVCIS:CSI16:1,2009-12-05T04:00:00Z,29.4012,-89.0355,25.11,11111222 
WAVCIS,ioos:station:WAVCIS:CSI16:1,2009-12-05T05:00:00Z,29.4012,-89.0355,26.34,11111222 
WAVCIS,ioos:station:WAVCIS:CSI16:1,2009-12-05T06:00:00Z,29.4012,-89.0355,29.67,11111222 
WAVCIS,ioos:station:WAVCIS:CSI16:1,2009-12-05T07:00:00Z,29.4012,-89.0355,31.29,11111222 
WAVCIS,ioos:station:WAVCIS:CSI16:1,2009-12-05T08:00:00Z,29.4012,-89.0355,27.92,11111222 
WAVCIS,ioos:station:WAVCIS:CSI16:1,2009-12-05T09:00:00Z,29.4012,-89.0355,26.14,11111222 
WAVCIS,ioos:station:WAVCIS:CSI16:1,2009-12-05T10:00:00Z,29.4012,-89.0355,25.61,11111222 
WAVCIS,ioos:station:WAVCIS:CSI16:1,2009-12-05T11:00:00Z,29.4012,-89.0355,25.27,11111222 
WAVCIS,ioos:station:WAVCIS:CSI16:1,2009-12-05T12:00:00Z,29.4012,-89.0355,25.89,11111222 
WAVCIS,ioos:station:WAVCIS:CSI16:1,2009-12-05T13:00:00Z,29.4012,-89.0355,25.6,11111222 
WAVCIS,ioos:station:WAVCIS:CSI16:1,2009-12-05T14:00:00Z,29.4012,-89.0355,25.47,11111222 
WAVCIS,ioos:station:WAVCIS:CSI16:1,2009-12-05T15:00:00Z,29.4012,-89.0355,26.28,11111222 
WAVCIS,ioos:station:WAVCIS:CSI16:1,2009-12-05T16:00:00Z,29.4012,-89.0355,27.59,11111222 
WAVCIS,ioos:station:WAVCIS:CSI16:1,2009-12-05T17:00:00Z,29.4012,-89.0355,26.59,11111222 
WAVCIS,ioos:station:WAVCIS:CSI16:1,2009-12-05T18:00:00Z,29.4012,-89.0355,26.86,11111222 
WAVCIS,ioos:station:WAVCIS:CSI16:1,2009-12-05T19:00:00Z,29.4012,-89.0355,28.43,11111222 
WAVCIS,ioos:station:WAVCIS:CSI16:1,2009-12-05T20:00:00Z,29.4012,-89.0355,30.32,11111222 
WAVCIS,ioos:station:WAVCIS:CSI16:1,2009-12-05T21:00:00Z,29.4012,-89.0355,30.35,11111222 
WAVCIS,ioos:station:WAVCIS:CSI16:1,2009-12-05T22:00:00Z,29.4012,-89.0355,31.03,11111222 
WAVCIS,ioos:station:WAVCIS:CSI16:1,2009-12-05T23:00:00Z,29.4012,-89.0355,30.56,11111222 
WAVCIS,ioos:station:WAVCIS:CSI16:1,2009-12-06T00:00:00Z,29.4012,-89.0355,30.58,11111222 
WAVCIS,ioos:station:WAVCIS:CSI16:1,2009-12-06T01:00:00Z,29.4012,-89.0355,32.32,11111222 
WAVCIS,ioos:station:WAVCIS:CSI16:1,2009-12-06T02:00:00Z,29.4012,-89.0355,34.62,11111222 
WAVCIS,ioos:station:WAVCIS:CSI16:1,2009-12-06T03:00:00Z,29.4012,-89.0355,34.7,11111222 
WAVCIS,ioos:station:WAVCIS:CSI16:1,2009-12-06T04:00:00Z,29.4012,-89.0355,32.56,11111222 
WAVCIS,ioos:station:WAVCIS:CSI16:1,2009-12-06T05:00:00Z,29.4012,-89.0355,32.77,11111222 
WAVCIS,ioos:station:WAVCIS:CSI16:1,2009-12-06T06:00:00Z,29.4012,-89.0355,32.77,11111222 
WAVCIS,ioos:station:WAVCIS:CSI16:1,2009-12-06T07:00:00Z,29.4012,-89.0355,30.91,11111222 
WAVCIS,ioos:station:WAVCIS:CSI16:1,2009-12-06T08:00:00Z,29.4012,-89.0355,30.09,11111222 
WAVCIS,ioos:station:WAVCIS:CSI16:1,2009-12-06T09:00:00Z,29.4012,-89.0355,29.85,11111222 
WAVCIS,ioos:station:WAVCIS:CSI16:1,2009-12-06T10:00:00Z,29.4012,-89.0355,30.69,11111222 
WAVCIS,ioos:station:WAVCIS:CSI16:1,2009-12-06T11:00:00Z,29.4012,-89.0355,30.73,11111222 
WAVCIS,ioos:station:WAVCIS:CSI16:1,2009-12-06T12:00:00Z,29.4012,-89.0355,30.53,11111222 
WAVCIS,ioos:station:WAVCIS:CSI16:1,2009-12-06T13:00:00Z,29.4012,-89.0355,30.75,11111222 
WAVCIS,ioos:station:WAVCIS:CSI16:1,2009-12-06T14:00:00Z,29.4012,-89.0355,28.85,11111222 
WAVCIS,ioos:station:WAVCIS:CSI16:1,2009-12-06T15:00:00Z,29.4012,-89.0355,29.37,11111222 
WAVCIS,ioos:station:WAVCIS:CSI16:1,2009-12-06T16:00:00Z,29.4012,-89.0355,29.56,11111222 
WAVCIS,ioos:station:WAVCIS:CSI16:1,2009-12-06T17:00:00Z,29.4012,-89.0355,29.64,11111222 
WAVCIS,ioos:station:WAVCIS:CSI16:1,2009-12-06T18:00:00Z,29.4012,-89.0355,28.92,11111222 
WAVCIS,ioos:station:WAVCIS:CSI16:1,2009-12-06T19:00:00Z,29.4012,-89.0355,29.59,11111222 
WAVCIS,ioos:station:WAVCIS:CSI16:1,2009-12-06T20:00:00Z,29.4012,-89.0355,29.11,11111222 
WAVCIS,ioos:station:WAVCIS:CSI16:1,2009-12-06T21:00:00Z,29.4012,-89.0355,34.66,11111222 
WAVCIS,ioos:station:WAVCIS:CSI16:1,2009-12-06T22:00:00Z,29.4012,-89.0355,31.15,11111222 
WAVCIS,ioos:station:WAVCIS:CSI16:1,2009-12-06T23:00:00Z,29.4012,-89.0355,30.63,11111222 
WAVCIS,ioos:station:WAVCIS:CSI16:1,2009-12-07T00:00:00Z,29.4012,-89.0355,32.17,11111222 
WAVCIS,ioos:station:WAVCIS:CSI16:1,2009-12-07T01:00:00Z,29.4012,-89.0355,33.28,11111222 
WAVCIS,ioos:station:WAVCIS:CSI16:1,2009-12-07T02:00:00Z,29.4012,-89.0355,32.37,11111222 
WAVCIS,ioos:station:WAVCIS:CSI16:1,2009-12-07T03:00:00Z,29.4012,-89.0355,29.0,11111222 
WAVCIS,ioos:station:WAVCIS:CSI16:1,2009-12-07T04:00:00Z,29.4012,-89.0355,29.1,11111222 
WAVCIS,ioos:station:WAVCIS:CSI16:1,2009-12-07T05:00:00Z,29.4012,-89.0355,28.72,11111222 
WAVCIS,ioos:station:WAVCIS:CSI16:1,2009-12-07T06:00:00Z,29.4012,-89.0355,30.02,11111222 
WAVCIS,ioos:station:WAVCIS:CSI16:1,2009-12-07T07:00:00Z,29.4012,-89.0355,29.43,11111222 
WAVCIS,ioos:station:WAVCIS:CSI16:1,2009-12-07T08:00:00Z,29.4012,-89.0355,29.3,11111222 
WAVCIS,ioos:station:WAVCIS:CSI16:1,2009-12-07T09:00:00Z,29.4012,-89.0355,29.25,11111222 
WAVCIS,ioos:station:WAVCIS:CSI16:1,2009-12-07T10:00:00Z,29.4012,-89.0355,29.35,11111222 
WAVCIS,ioos:station:WAVCIS:CSI16:1,2009-12-07T11:00:00Z,29.4012,-89.0355,30.02,11111222 
WAVCIS,ioos:station:WAVCIS:CSI16:1,2009-12-07T12:00:00Z,29.4012,-89.0355,30.09,11111222 
WAVCIS,ioos:station:WAVCIS:CSI16:1,2009-12-07T13:00:00Z,29.4012,-89.0355,30.12,11111222 
WAVCIS,ioos:station:WAVCIS:CSI16:1,2009-12-07T14:00:00Z,29.4012,-89.0355,30.21,11111222 
WAVCIS,ioos:station:WAVCIS:CSI16:1,2009-12-07T15:00:00Z,29.4012,-89.0355,30.36,11111222 
WAVCIS,ioos:station:WAVCIS:CSI16:1,2009-12-07T16:00:00Z,29.4012,-89.0355,29.94,11111222 
WAVCIS,ioos:station:WAVCIS:CSI16:1,2009-12-07T17:00:00Z,29.4012,-89.0355,29.38,11111222 
WAVCIS,ioos:station:WAVCIS:CSI16:1,2009-12-07T18:00:00Z,29.4012,-89.0355,29.4,11111222 
WAVCIS,ioos:station:WAVCIS:CSI16:1,2009-12-07T19:00:00Z,29.4012,-89.0355,30.03,11111222 
WAVCIS,ioos:station:WAVCIS:CSI16:1,2009-12-07T20:00:00Z,29.4012,-89.0355,29.1,11111222 
WAVCIS,ioos:station:WAVCIS:CSI16:1,2009-12-07T21:00:00Z,29.4012,-89.0355,29.57,11111222 
WAVCIS,ioos:station:WAVCIS:CSI16:1,2009-12-07T22:00:00Z,29.4012,-89.0355,29.21,11111222 
WAVCIS,ioos:station:WAVCIS:CSI16:1,2009-12-07T23:00:00Z,29.4012,-89.0355,28.41,11111222 
WAVCIS,ioos:station:WAVCIS:CSI16:1,2009-12-08T00:00:00Z,29.4012,-89.0355,28.36,11111222 
WAVCIS,ioos:station:WAVCIS:CSI16:1,2009-12-08T01:00:00Z,29.4012,-89.0355,28.92,11111222 
WAVCIS,ioos:station:WAVCIS:CSI16:1,2009-12-08T02:00:00Z,29.4012,-89.0355,28.3,11111222 
WAVCIS,ioos:station:WAVCIS:CSI16:1,2009-12-08T03:00:00Z,29.4012,-89.0355,28.2,11111222 
WAVCIS,ioos:station:WAVCIS:CSI16:1,2009-12-08T04:00:00Z,29.4012,-89.0355,28.29,11111222 
WAVCIS,ioos:station:WAVCIS:CSI16:1,2009-12-08T05:00:00Z,29.4012,-89.0355,28.79,11111222 
WAVCIS,ioos:station:WAVCIS:CSI16:1,2009-12-08T06:00:00Z,29.4012,-89.0355,27.86,11111222 
WAVCIS,ioos:station:WAVCIS:CSI16:1,2009-12-08T07:00:00Z,29.4012,-89.0355,28.76,11111222 
WAVCIS,ioos:station:WAVCIS:CSI16:1,2009-12-08T08:00:00Z,29.4012,-89.0355,28.11,11111222 
WAVCIS,ioos:station:WAVCIS:CSI16:1,2009-12-08T09:00:00Z,29.4012,-89.0355,28.4,11111222 
WAVCIS,ioos:station:WAVCIS:CSI16:1,2009-12-08T10:00:00Z,29.4012,-89.0355,28.4,11111222 
WAVCIS,ioos:station:WAVCIS:CSI16:1,2009-12-08T11:00:00Z,29.4012,-89.0355,27.24,11111222 
WAVCIS,ioos:station:WAVCIS:CSI16:1,2009-12-08T12:00:00Z,29.4012,-89.0355,27.6,11111222 
WAVCIS,ioos:station:WAVCIS:CSI16:1,2009-12-08T13:00:00Z,29.4012,-89.0355,27.45,11111222 
WAVCIS,ioos:station:WAVCIS:CSI16:1,2009-12-08T14:00:00Z,29.4012,-89.0355,27.82,11111222 
WAVCIS,ioos:station:WAVCIS:CSI16:1,2009-12-08T15:00:00Z,29.4012,-89.0355,28.15,11111222 
WAVCIS,ioos:station:WAVCIS:CSI16:1,2009-12-08T16:00:00Z,29.4012,-89.0355,28.06,11111222 
WAVCIS,ioos:station:WAVCIS:CSI16:1,2009-12-08T17:00:00Z,29.4012,-89.0355,28.76,11111222 
WAVCIS,ioos:station:WAVCIS:CSI16:1,2009-12-08T18:00:00Z,29.4012,-89.0355,28.89,11111222 
WAVCIS,ioos:station:WAVCIS:CSI16:1,2009-12-08T19:00:00Z,29.4012,-89.0355,29.44,11111222 
WAVCIS,ioos:station:WAVCIS:CSI16:1,2009-12-08T20:00:00Z,29.4012,-89.0355,28.6,11111222 
WAVCIS,ioos:station:WAVCIS:CSI16:1,2009-12-08T21:00:00Z,29.4012,-89.0355,28.81,11111222 
WAVCIS,ioos:station:WAVCIS:CSI16:1,2009-12-08T22:00:00Z,29.4012,-89.0355,28.17,11111222 
WAVCIS,ioos:station:WAVCIS:CSI16:1,2009-12-08T23:00:00Z,29.4012,-89.0355,28.04,11111222 
WAVCIS,ioos:station:WAVCIS:CSI16:1,2009-12-09T00:00:00Z,29.4012,-89.0355,28.09,11111222 
WAVCIS,ioos:station:WAVCIS:CSI16:1,2009-12-09T01:00:00Z,29.4012,-89.0355,27.95,11111222 
WAVCIS,ioos:station:WAVCIS:CSI16:1,2009-12-09T02:00:00Z,29.4012,-89.0355,28.19,11111222 
WAVCIS,ioos:station:WAVCIS:CSI16:1,2009-12-09T03:00:00Z,29.4012,-89.0355,27.88,11111222 
WAVCIS,ioos:station:WAVCIS:CSI16:1,2009-12-09T04:00:00Z,29.4012,-89.0355,27.71,11111222 
WAVCIS,ioos:station:WAVCIS:CSI16:1,2009-12-09T05:00:00Z,29.4012,-89.0355,27.9,11111222 
WAVCIS,ioos:station:WAVCIS:CSI16:1,2009-12-09T06:00:00Z,29.4012,-89.0355,28.55,11111222 
WAVCIS,ioos:station:WAVCIS:CSI16:1,2009-12-09T07:00:00Z,29.4012,-89.0355,28.37,11111222 
WAVCIS,ioos:station:WAVCIS:CSI16:1,2009-12-09T08:00:00Z,29.4012,-89.0355,29.16,11111222 
WAVCIS,ioos:station:WAVCIS:CSI16:1,2009-12-09T09:00:00Z,29.4012,-89.0355,28.22,11111222 
WAVCIS,ioos:station:WAVCIS:CSI16:1,2009-12-09T10:00:00Z,29.4012,-89.0355,28.55,11111222 
WAVCIS,ioos:station:WAVCIS:CSI16:1,2009-12-09T11:00:00Z,29.4012,-89.0355,29.26,11111222 
WAVCIS,ioos:station:WAVCIS:CSI16:1,2009-12-09T12:00:00Z,29.4012,-89.0355,28.93,11111222 
WAVCIS,ioos:station:WAVCIS:CSI16:1,2009-12-09T13:00:00Z,29.4012,-89.0355,29.03,11111222 
WAVCIS,ioos:station:WAVCIS:CSI16:1,2009-12-09T14:00:00Z,29.4012,-89.0355,29.37,11111222 
WAVCIS,ioos:station:WAVCIS:CSI16:1,2009-12-09T15:00:00Z,29.4012,-89.0355,29.45,11111222 
WAVCIS,ioos:station:WAVCIS:CSI16:1,2009-12-09T16:00:00Z,29.4012,-89.0355,29.54,11111222 
WAVCIS,ioos:station:WAVCIS:CSI16:1,2009-12-09T17:00:00Z,29.4012,-89.0355,29.2,11111222 
WAVCIS,ioos:station:WAVCIS:CSI16:1,2009-12-09T18:00:00Z,29.4012,-89.0355,31.84,11111222 
WAVCIS,ioos:station:WAVCIS:CSI16:1,2009-12-09T19:00:00Z,29.4012,-89.0355,28.21,11111222 
WAVCIS,ioos:station:WAVCIS:CSI16:1,2009-12-09T20:00:00Z,29.4012,-89.0355,27.04,11111222 
WAVCIS,ioos:station:WAVCIS:CSI16:1,2009-12-09T21:00:00Z,29.4012,-89.0355,28.4,11111222 
WAVCIS,ioos:station:WAVCIS:CSI16:1,2009-12-09T22:00:00Z,29.4012,-89.0355,28.3,11111222 
WAVCIS,ioos:station:WAVCIS:CSI16:1,2009-12-09T23:00:00Z,29.4012,-89.0355,31.46,11111222 
WAVCIS,ioos:station:WAVCIS:CSI16:1,2009-12-10T00:00:00Z,29.4012,-89.0355,28.83,11111222 
WAVCIS,ioos:station:WAVCIS:CSI16:1,2009-12-10T01:00:00Z,29.4012,-89.0355,29.1,11111222 
WAVCIS,ioos:station:WAVCIS:CSI16:1,2009-12-10T02:00:00Z,29.4012,-89.0355,29.19,11111222 
WAVCIS,ioos:station:WAVCIS:CSI16:1,2009-12-10T03:00:00Z,29.4012,-89.0355,27.93,11111222 
WAVCIS,ioos:station:WAVCIS:CSI16:1,2009-12-10T04:00:00Z,29.4012,-89.0355,26.79,11111222 
WAVCIS,ioos:station:WAVCIS:CSI16:1,2009-12-10T05:00:00Z,29.4012,-89.0355,27.32,11111222 
WAVCIS,ioos:station:WAVCIS:CSI16:1,2009-12-10T06:00:00Z,29.4012,-89.0355,27.41,11111222 
WAVCIS,ioos:station:WAVCIS:CSI16:1,2009-12-10T07:00:00Z,29.4012,-89.0355,27.62,11111222 
WAVCIS,ioos:station:WAVCIS:CSI16:1,2009-12-10T08:00:00Z,29.4012,-89.0355,27.09,11111222 
WAVCIS,ioos:station:WAVCIS:CSI16:1,2009-12-10T09:00:00Z,29.4012,-89.0355,27.33,11111222 
WAVCIS,ioos:station:WAVCIS:CSI16:1,2009-12-10T10:00:00Z,29.4012,-89.0355,27.61,11111222 
WAVCIS,ioos:station:WAVCIS:CSI16:1,2009-12-10T11:00:00Z,29.4012,-89.0355,28.77,11111222 
WAVCIS,ioos:station:WAVCIS:CSI16:1,2009-12-10T12:00:00Z,29.4012,-89.0355,29.34,11111222 
WAVCIS,ioos:station:WAVCIS:CSI16:1,2009-12-10T13:00:00Z,29.4012,-89.0355,33.51,11111222 
WAVCIS,ioos:station:WAVCIS:CSI16:1,2009-12-10T14:00:00Z,29.4012,-89.0355,35.97,11111222 
WAVCIS,ioos:station:WAVCIS:CSI16:1,2009-12-10T15:00:00Z,29.4012,-89.0355,35.86,11111222 
WAVCIS,ioos:station:WAVCIS:CSI16:1,2009-12-10T16:00:00Z,29.4012,-89.0355,36.87,11111222 
WAVCIS,ioos:station:WAVCIS:CSI16:1,2009-12-10T17:00:00Z,29.4012,-89.0355,35.71,11111222 
WAVCIS,ioos:station:WAVCIS:CSI16:1,2009-12-10T18:00:00Z,29.4012,-89.0355,36.08,11111222 
WAVCIS,ioos:station:WAVCIS:CSI16:1,2009-12-10T19:00:00Z,29.4012,-89.0355,36.34,11111222 
WAVCIS,ioos:station:WAVCIS:CSI16:1,2009-12-10T20:00:00Z,29.4012,-89.0355,36.78,11111222 
WAVCIS,ioos:station:WAVCIS:CSI16:1,2009-12-10T21:00:00Z,29.4012,-89.0355,35.95,11111222 
WAVCIS,ioos:station:WAVCIS:CSI16:1,2009-12-10T22:00:00Z,29.4012,-89.0355,37.08,11111222 
WAVCIS,ioos:station:WAVCIS:CSI16:1,2009-12-10T23:00:00Z,29.4012,-89.0355,37.19,11111222 
WAVCIS,ioos:station:WAVCIS:CSI16:1,2009-12-11T00:00:00Z,29.4012,-89.0355,35.36,11111222 
WAVCIS,ioos:station:WAVCIS:CSI16:1,2009-12-11T01:00:00Z,29.4012,-89.0355,34.57,11111222 
WAVCIS,ioos:station:WAVCIS:CSI16:1,2009-12-11T02:00:00Z,29.4012,-89.0355,33.37,11111222 
WAVCIS,ioos:station:WAVCIS:CSI16:1,2009-12-11T03:00:00Z,29.4012,-89.0355,33.74,11111222 
WAVCIS,ioos:station:WAVCIS:CSI16:1,2009-12-11T04:00:00Z,29.4012,-89.0355,31.71,11111222 
WAVCIS,ioos:station:WAVCIS:CSI16:1,2009-12-11T05:00:00Z,29.4012,-89.0355,30.09,11111222 
WAVCIS,ioos:station:WAVCIS:CSI16:1,2009-12-11T06:00:00Z,29.4012,-89.0355,30.8,11111222 
WAVCIS,ioos:station:WAVCIS:CSI16:1,2009-12-11T07:00:00Z,29.4012,-89.0355,30.02,11111222 
WAVCIS,ioos:station:WAVCIS:CSI16:1,2009-12-11T08:00:00Z,29.4012,-89.0355,31.25,11111222 
WAVCIS,ioos:station:WAVCIS:CSI16:1,2009-12-11T09:00:00Z,29.4012,-89.0355,30.45,11111222 
WAVCIS,ioos:station:WAVCIS:CSI16:1,2009-12-11T10:00:00Z,29.4012,-89.0355,30.05,11111222 
WAVCIS,ioos:station:WAVCIS:CSI16:1,2009-12-11T11:00:00Z,29.4012,-89.0355,29.81,11111222 
WAVCIS,ioos:station:WAVCIS:CSI16:1,2009-12-11T12:00:00Z,29.4012,-89.0355,30.11,11111222 
WAVCIS,ioos:station:WAVCIS:CSI16:1,2009-12-11T13:00:00Z,29.4012,-89.0355,28.27,11111222 
WAVCIS,ioos:station:WAVCIS:CSI16:1,2009-12-11T14:00:00Z,29.4012,-89.0355,29.15,11111222 
WAVCIS,ioos:station:WAVCIS:CSI16:1,2009-12-11T15:00:00Z,29.4012,-89.0355,29.61,11111222 
WAVCIS,ioos:station:WAVCIS:CSI16:1,2009-12-11T16:00:00Z,29.4012,-89.0355,29.94,11111222 
WAVCIS,ioos:station:WAVCIS:CSI16:1,2009-12-11T17:00:00Z,29.4012,-89.0355,29.7,11111222 
WAVCIS,ioos:station:WAVCIS:CSI16:1,2009-12-11T18:00:00Z,29.4012,-89.0355,28.05,11111222 
WAVCIS,ioos:station:WAVCIS:CSI16:1,2009-12-11T19:00:00Z,29.4012,-89.0355,29.29,11111222 
WAVCIS,ioos:station:WAVCIS:CSI16:1,2009-12-11T20:00:00Z,29.4012,-89.0355,29.99,11111222 
WAVCIS,ioos:station:WAVCIS:CSI16:1,2009-12-11T21:00:00Z,29.4012,-89.0355,29.51,11111222 
WAVCIS,ioos:station:WAVCIS:CSI16:1,2009-12-11T22:00:00Z,29.4012,-89.0355,28.74,11111222 
WAVCIS,ioos:station:WAVCIS:CSI16:1,2009-12-11T23:00:00Z,29.4012,-89.0355,29.45,11111222 
WAVCIS,ioos:station:WAVCIS:CSI16:1,2009-12-12T00:00:00Z,29.4012,-89.0355,29.92,11111222 
WAVCIS,ioos:station:WAVCIS:CSI16:1,2009-12-12T01:00:00Z,29.4012,-89.0355,29.99,11111222 
WAVCIS,ioos:station:WAVCIS:CSI16:1,2009-12-12T02:00:00Z,29.4012,-89.0355,31.17,11111222 
WAVCIS,ioos:station:WAVCIS:CSI16:1,2009-12-12T03:00:00Z,29.4012,-89.0355,30.87,11111222 
WAVCIS,ioos:station:WAVCIS:CSI16:1,2009-12-12T04:00:00Z,29.4012,-89.0355,29.88,11111222 